[[{"header":{"parameterUnit":"m.s-1","parameterCategory":1,"la1":30.2991,"la2":30.254,"lo1":-89.0895,"lo2":-89.0444,"dy":0.0017,"dx":0.0017,"nx":28,"ny":28,"refTime":"2023-04-03T21:00:00:Z","depth":0,"parameterNumber":2,"parameterNumberName":"U-component_of_WINDS"},"data":[0,0,0,0,0,0,0,0,0,0,0,0,0,0,0,0,0,0,0,0,0,0,0,0,0,0,0,0,0,0,0,0,0,0,0,0,0,0,0,0,0,0,0,0,0,0,0,0,0,0,0,0,0,0,0,0,0,0,-2.7687,-2.7688,0,-2.7771,-2.7772,-2.7773,-2.7795,-2.7795,-2.7794,-2.7794,-2.7881,-2.7884,-2.7886,0,0,0,0,0,0,0,0,0,0,0,0,0,-2.7545,-2.7547,-2.7687,-2.7688,-2.7689,-2.7771,-2.7772,-2.7774,-2.7795,-2.7795,-2.7794,-2.7793,-2.788,-2.7883,-2.7887,0,0,0,0,0,0,0,0,0,0,0,0,0,-2.7616,-2.7548,-2.7686,-2.771,-2.7712,-2.7771,-2.7772,-2.7774,-2.7795,-2.7795,-2.7794,-2.7793,-2.7879,-2.7883,-2.7887,-2.7929,0,0,-2.79,-2.7902,0,0,0,0,0,0,0,0,-2.7611,-2.7621,-2.7705,-2.7708,-2.7711,-2.7772,-2.7754,-2.7826,-2.7796,-2.7764,-2.7794,-2.7793,-2.7845,-2.7852,-2.787,-2.7933,-2.7937,-2.79,-2.7903,-2.7905,-2.7906,0,0,0,0,0,0,0,-2.7607,-2.7617,-2.772,-2.7706,-2.771,-2.7716,-2.7725,-2.7768,-2.7808,-2.7767,-2.7768,-2.7778,-2.7847,-2.7866,-2.7872,-2.7938,-2.79,-2.7904,-2.7906,-2.7908,-2.804,-2.8041,0,0,0,0,0,0,-2.7598,-2.7613,-2.7717,-2.7723,-2.7658,-2.7719,-2.7729,-2.7753,-2.7808,-2.7815,-2.7779,-2.7779,-2.7859,-2.7867,-2.7875,-2.7927,-2.7905,-2.7909,-2.7911,-2.8039,-2.804,-2.8041,0,0,0,0,0,0,-2.7594,-2.7607,-2.7714,-2.7668,-2.7683,-2.7722,-2.7749,-2.7755,-2.7774,-2.7817,-2.7824,-2.779,-2.7859,-2.7869,-2.7915,-2.7931,-2.791,-2.7914,-2.8037,-2.8039,-2.804,-2.8032,0,0,0,0,0,0,-2.759,-2.7605,-2.7621,-2.7669,-2.7685,-2.7752,-2.775,-2.7758,-2.7781,-2.7782,-2.783,-2.7837,-2.7859,-2.7909,-2.7919,-2.7936,-2.7918,-2.8036,-2.8038,-2.804,-2.8031,-2.8033,-2.8034,0,0,0,0,0,-2.7585,-2.7616,-2.7622,-2.7635,-2.7706,-2.7753,-2.7763,-2.7787,-2.7782,-2.7799,-2.7826,-2.7835,-2.7927,-2.7913,-2.7925,-2.7943,-2.8035,-2.8038,-2.804,-2.803,-2.8032,-2.8034,0,0,0,0,0,0,-2.7569,-2.7622,-2.763,-2.7677,-2.771,-2.7757,-2.7778,-2.7789,-2.7824,-2.7824,-2.7853,-2.7864,-2.7908,-2.7931,-2.7914,-2.7987,-2.7982,-2.7986,-2.797,-2.7973,-2.7974,-2.7967,-2.7921,0,0,0,0,0,-2.7571,-2.7605,-2.765,-2.7687,-2.7703,-2.7738,-2.776,-2.7776,-2.7812,-2.7826,-2.7857,-2.7892,-2.7928,-2.7952,-2.7988,-2.8035,-2.8045,-2.8053,-2.8055,-2.8056,-2.806,-2.8086,-2.809,-2.8048,-2.8048,-2.8048,0,0,-2.7576,-2.7609,-2.7629,-2.7685,-2.7713,-2.7747,-2.775,-2.7786,-2.7812,-2.7832,-2.7877,-2.7901,-2.7942,-2.7988,-2.801,-2.8008,-2.8074,-2.8059,-2.806,-2.8062,-2.8088,-2.8092,-2.8096,-2.8049,-2.8049,-2.8049,0,0,-2.7601,-2.763,-2.7664,-2.7692,-2.7734,-2.7757,-2.7765,-2.781,-2.7827,-2.7872,-2.7888,-2.7919,-2.7982,-2.8011,-2.8033,-2.807,-2.808,-2.8081,-2.809,-2.8115,-2.8118,-2.8122,-2.8134,-2.8138,-2.8085,-2.8085,-2.8085,0,-2.7601,-2.7654,-2.768,-2.7716,-2.774,-2.7759,-2.7794,-2.782,-2.7872,-2.7888,-2.7886,-2.7965,-2.7994,-2.8047,-2.8056,-2.8074,-2.8084,-2.8075,-2.8116,-2.8119,-2.8122,-2.8135,-2.8139,-2.8085,-2.8085,-2.8085,-2.8085,0,-2.7652,-2.7688,-2.771,-2.776,-2.7787,-2.7822,-2.7853,-2.7877,-2.7891,-2.7914,-2.7961,-2.7996,-2.804,-2.8054,-2.8068,-2.8109,-2.8107,-2.811,-2.8105,-2.8126,-2.8138,-2.8143,-2.8085,-2.8085,-2.8085,-2.8085,0,0,-2.7669,-2.7732,-2.774,-2.7762,-2.7811,-2.7839,-2.7876,-2.7918,-2.7938,-2.7974,-2.8004,-2.8058,-2.8061,-2.8086,-2.8104,-2.8126,-2.8153,-2.8127,-2.8128,-2.8129,-2.82,-2.8196,-2.8201,-2.816,-2.8161,-2.8162,-2.8196,0,-2.77,-2.7764,-2.7789,-2.7842,-2.7875,-2.7894,-2.7926,-2.7959,-2.7982,-2.8014,-2.804,-2.8077,-2.8078,-2.8094,-2.8117,-2.8144,-2.8167,-2.8143,-2.8188,-2.819,-2.8176,-2.8208,-2.8204,-2.8235,-2.8201,-2.8202,-2.8202,0,-2.7744,-2.7779,-2.7835,-2.7879,-2.7895,-2.7922,-2.7963,-2.7994,-2.8032,-2.8047,-2.8076,-2.8093,-2.8131,-2.8125,-2.8179,-2.8162,-2.8182,-2.8199,-2.8201,-2.8205,-2.8196,-2.8212,-2.8245,-2.825,-2.821,-2.8209,-2.8209,0,-2.775,-2.7812,-2.7853,-2.7872,-2.7925,-2.7944,-2.7967,-2.8004,-2.8028,-2.8064,-2.808,-2.8121,-2.8142,-2.8173,-2.82,-2.8193,-2.8252,-2.8247,-2.8265,-2.8264,-2.8275,-2.8274,-2.8312,-2.829,-2.829,-2.829,-2.829,0,-2.7781,-2.7814,-2.7856,-2.7882,-2.792,-2.7948,-2.7985,-2.8009,-2.8043,-2.8073,-2.8093,-2.8121,-2.8156,-2.8189,-2.821,-2.8251,-2.8261,-2.8274,-2.828,-2.8272,-2.827,-2.8285,-2.8283,-2.8291,-2.8291,-2.8291,-2.8291,0,-2.7793,-2.7823,-2.7869,-2.7915,-2.7928,-2.7954,-2.7993,-2.8019,-2.8043,-2.8081,-2.8092,-2.813,-2.817,-2.82,-2.8252,-2.8266,-2.831,-2.8316,-2.8296,-2.8299,-2.8315,-2.8312,-2.8362,-2.837,-2.8344,-2.8344,-2.8344,0,-2.7811,-2.7837,-2.7886,-2.7907,-2.793,-2.7965,-2.7989,-2.8019,-2.8044,-2.8089,-2.8109,-2.815,-2.8185,-2.8248,-2.828,-2.832,-2.8326,-2.8341,-2.8332,-2.8324,-2.8325,-2.8323,-2.8326,-2.8342,-2.8342,-2.8342,-2.8342,0,-2.7839,-2.7852,-2.7886,-2.7926,-2.7955,-2.7988,-2.8021,-2.8037,-2.8073,-2.81,-2.8141,-2.8167,-2.822,-2.8261,-2.8304,-2.8328,-2.8341,-2.8345,-2.8351,-2.8343,-2.833,-2.8336,-2.8299,-2.8343,-2.8343,-2.8343,-2.8343,-2.8343,-2.7854,-2.7878,-2.7916,-2.7953,-2.7981,-2.8012,-2.8038,-2.8065,-2.81,-2.8144,-2.816,-2.8202,-2.824,-2.8299,-2.8324,-2.8357,-2.8357,-2.8366,-2.8368,-2.837,-2.8369,-2.8326,-2.8365,-2.8365,-2.8365,-2.8365,-2.8365,0,-2.7882,-2.7907,-2.7942,-2.7987,-2.8017,-2.8027,-2.8064,-2.8088,-2.8125,-2.8159,-2.8192,-2.8239,-2.8278,-2.8314,-2.8355,-2.8375,-2.8382,-2.8385,-2.8383,-2.8389,-2.8366,-2.8357,-2.8379,-2.8379,-2.8379,-2.8379,-2.8379,-2.8379,-2.79,-2.7941,-2.7959,-2.8014,-2.8039,-2.808,-2.81,-2.8128,-2.8156,-2.8207,-2.824,-2.8262,-2.8297,-2.8341,-2.8378,-2.8388,-2.8402,-2.8403,-2.8413,-2.8392,-2.839,-2.8388,-2.8379,-2.8406,-2.8406,-2.8433,-2.8433,-2.8433]},{"header":{"parameterUnit":"m.s-1","parameterCategory":1,"la1":30.2991,"la2":30.254,"lo1":-89.0895,"lo2":-89.0444,"dy":0.0017,"dx":0.0017,"nx":28,"ny":28,"refTime":"2023-04-03T21:00:00:Z","depth":0,"parameterNumber":3,"parameterNumberName":"V-component_of_WINDS"},"data":[0,0,0,0,0,0,0,0,0,0,0,0,0,0,0,0,0,0,0,0,0,0,0,0,0,0,0,0,0,0,0,0,0,0,0,0,0,0,0,0,0,0,0,0,0,0,0,0,0,0,0,0,0,0,0,0,0,0,4.9628,4.9629,0,4.97,4.9701,4.9702,4.971,4.9709,4.9709,4.9708,4.978,4.9783,4.9785,0,0,0,0,0,0,0,0,0,0,0,0,0,4.9496,4.9498,4.9628,4.9629,4.963,4.97,4.9701,4.9702,4.971,4.9709,4.9708,4.9708,4.9779,4.9782,4.9785,0,0,0,0,0,0,0,0,0,0,0,0,0,4.9559,4.9499,4.9628,4.9642,4.9644,4.97,4.9701,4.9703,4.971,4.9709,4.9708,4.9707,4.9778,4.9782,4.9786,4.9832,0,0,4.9798,4.9799,0,0,0,0,0,0,0,0,4.9556,4.9564,4.9639,4.9641,4.9644,4.9695,4.9681,4.9746,4.9711,4.9685,4.9708,4.9707,4.9753,4.9758,4.9774,4.9835,4.9838,4.9798,4.9801,4.9802,4.9803,0,0,0,0,0,0,0,4.9551,4.9561,4.9656,4.964,4.9643,4.9645,4.9653,4.9694,4.9724,4.9687,4.9688,4.9697,4.9754,4.9771,4.9776,4.9839,4.9798,4.9802,4.9804,4.9805,4.9946,4.9947,0,0,0,0,0,0,4.9544,4.9557,4.9654,4.9659,4.9596,4.9648,4.9657,4.968,4.9724,4.9729,4.9697,4.9697,4.9765,4.9772,4.9779,4.9838,4.9802,4.9806,4.9808,4.9944,4.9946,4.9947,0,0,0,0,0,0,4.9542,4.9553,4.9651,4.9608,4.9621,4.9652,4.9677,4.9682,4.9699,4.9731,4.9737,4.9709,4.9764,4.9773,4.982,4.9841,4.9808,4.9811,4.9943,4.9945,4.9947,4.9956,0,0,0,0,0,0,4.9538,4.9552,4.9569,4.9609,4.9623,4.9691,4.9678,4.9684,4.9706,4.9705,4.9744,4.9749,4.9764,4.9814,4.9824,4.9845,4.9814,4.9941,4.9944,4.9946,4.9954,4.9958,4.9961,0,0,0,0,0,4.9533,4.9568,4.957,4.9582,4.9646,4.9692,4.97,4.9717,4.9707,4.9726,4.9747,4.9748,4.9837,4.9818,4.9829,4.9853,4.994,4.9943,4.9946,4.9952,4.9957,4.9961,0,0,0,0,0,0,4.9528,4.9573,4.9576,4.9625,4.9655,4.9693,4.9716,4.9721,4.9754,4.9752,4.9771,4.9779,4.9826,4.9844,4.9822,4.9902,4.9887,4.9893,4.9888,4.9893,4.9897,4.9892,4.9817,0,0,0,0,0,4.9533,4.9567,4.9604,4.9643,4.9658,4.9685,4.9705,4.9716,4.9748,4.976,4.9785,4.9815,4.985,4.9872,4.9906,4.9956,4.9966,4.9978,4.9982,4.9985,4.999,5.0021,5.0027,4.9958,4.9958,4.9957,0,0,4.9543,4.9571,4.9591,4.9643,4.9668,4.9703,4.9695,4.9732,4.9759,4.9765,4.9812,4.9831,4.9866,4.9916,4.9938,4.9932,5.0011,4.9989,4.9991,4.9994,5.0025,5.0031,5.0037,4.996,4.9959,4.9959,0,0,4.9579,4.9603,4.964,4.9666,4.9704,4.9722,4.9731,4.977,4.9783,4.983,4.9837,4.9869,4.9928,4.9954,4.9975,5.0025,5.0028,5.0035,5.0056,5.0086,5.0091,5.0096,5.0117,5.0123,5.004,5.004,5.004,0,4.9586,4.964,4.9658,4.9697,4.972,4.9729,4.9768,4.9791,4.9838,4.9854,4.9847,4.9924,4.9948,5.0005,5.0018,5.0033,5.0046,5.0031,5.0089,5.0094,5.0099,5.0119,5.0126,5.0041,5.0041,5.0041,5.004,0,4.9648,4.9686,4.9711,4.9758,4.9785,4.9822,4.9847,4.9872,4.9881,4.99,4.9949,4.9979,5.0021,5.0035,5.0043,5.0094,5.0089,5.0085,5.0071,5.0106,5.0125,5.0133,5.0042,5.0042,5.0041,5.0041,0,0,4.9682,4.9741,4.9751,4.9774,4.9818,4.9847,4.9886,4.9928,4.995,4.9983,5.0017,5.0069,5.0067,5.009,5.0102,5.0128,5.0169,5.0121,5.0122,5.0131,5.0231,5.0235,5.0243,5.0172,5.0173,5.0174,5.0229,0,4.9725,4.9796,4.9815,4.9875,4.9912,4.9923,4.9957,4.9989,5.0008,5.0042,5.0063,5.0101,5.0094,5.0109,5.0135,5.0159,5.019,5.0155,5.0205,5.0207,5.0197,5.0252,5.0256,5.0305,5.0236,5.0237,5.0238,0,4.9784,4.982,4.9885,4.9928,4.9944,4.9974,5.0016,5.0048,5.0085,5.0097,5.0126,5.0136,5.0178,5.0162,5.0222,5.0198,5.022,5.0235,5.0238,5.0244,5.0225,5.0261,5.0321,5.033,5.0249,5.0248,5.0247,0,4.9805,4.987,4.9918,4.9937,4.9987,5.0009,5.0031,5.0066,5.0092,5.0128,5.0145,5.0186,5.0208,5.024,5.0261,5.0247,5.032,5.0305,5.0333,5.0333,5.0348,5.0347,5.0414,5.036,5.036,5.036,5.036,0,4.9852,4.9891,4.9928,4.9958,5.0003,5.0026,5.007,5.0092,5.0125,5.0159,5.0171,5.0203,5.0229,5.0265,5.0282,5.0331,5.034,5.0352,5.0357,5.0352,5.0351,5.0367,5.0365,5.0362,5.0361,5.0361,5.0361,0,4.9883,4.9909,4.9962,5.0007,5.0019,5.0051,5.0089,5.0119,5.014,5.0184,5.0196,5.0229,5.0272,5.0297,5.0351,5.0362,5.0418,5.0419,5.0406,5.0408,5.0435,5.0433,5.0516,5.053,5.0465,5.0465,5.0466,0,4.9911,4.9943,4.9992,5.0016,5.0039,5.0078,5.0105,5.0129,5.0156,5.0203,5.0227,5.0272,5.0309,5.0378,5.0407,5.045,5.0454,5.048,5.046,5.0456,5.0457,5.0455,5.046,5.0483,5.0484,5.0485,5.0485,0,4.9961,4.9973,5.0011,5.0055,5.0087,5.0123,5.0158,5.0177,5.0207,5.0238,5.0283,5.0312,5.0369,5.0414,5.046,5.0483,5.049,5.0491,5.05,5.0497,5.0489,5.0496,5.0417,5.0489,5.0489,5.0488,5.0488,5.0488,4.9993,5.0022,5.0062,5.0106,5.0135,5.0169,5.02,5.0226,5.0265,5.0314,5.0326,5.0374,5.0413,5.0475,5.05,5.0539,5.0534,5.0546,5.055,5.0553,5.0555,5.0482,5.0547,5.0547,5.0546,5.0546,5.0546,0,5.0044,5.0072,5.0111,5.0161,5.0196,5.02,5.024,5.0269,5.0312,5.0348,5.0385,5.044,5.0484,5.0518,5.0563,5.0588,5.0593,5.06,5.0599,5.0605,5.0556,5.0544,5.0596,5.0596,5.0596,5.0596,5.0596,5.0596,5.0075,5.0127,5.0144,5.0211,5.0238,5.0287,5.031,5.0341,5.037,5.0431,5.0468,5.049,5.0526,5.0575,5.0617,5.0626,5.0643,5.065,5.0659,5.0613,5.0608,5.0603,5.0592,5.0653,5.0653,5.0705,5.0706,5.0706]}]]